Puunene, HI (96784)

2:35 PM HST on August 26, 2016 (GMT -1000)
Lower Kula | | Change Station

Elev 2336 ft 20.76 °N, 156.34 °W | Updated 13 seconds ago

Clear
Clear
84.8 °F
Feels Like 87 °F
N
7.0
Wind Variable Wind from WSW
Gusts 7.0 mph

Today
High -- | Low -- °F
--% Chance of Precip.
Yesterday
High -- | Low -- °F
Precip. -- in
Pressure 29.95 in
Visibility 10.0 miles
Clouds Clear
Heat Index 87 °F
Dew Point 66 °F
Humidity 54%
Rainfall 0.00 in
Snow Depth Not available.
6:07 AM 6:45 PM
Waning Crescent, 30% visible
METAR PHNY 262356Z AUTO 04019G26KT 10SM CLR 27/19 A3002 RMK AO2 PK WND 04028/2340 SLP141 6//// T02720194 10278 20239 56019 PNO $
Pressure 29.95 in
Visibility 10.0 miles
Clouds Clear
Heat Index 87 °F
Dew Point 66 °F
Humidity 54%
Rainfall 0.00 in
Snow Depth Not available.
6:07 AM 6:45 PM
Waning Crescent, 30% visible
METAR PHNY 262356Z AUTO 04019G26KT 10SM CLR 27/19 A3002 RMK AO2 PK WND 04028/2340 SLP141 6//// T02720194 10278 20239 56019 PNO $

10-Day Weather Forecast

Almanac

Astronomy

Aug. 26, 2016 Rise Set
Actual Time
Civil Twilight
Nautical Twilight
Astronomical Twilight
Moon
Length of Visible Light
Length of Day
Tomorrow will be .
, % of the Moon is Illuminated

Today's Extremes

State Highs State Lows

Community

WunderPhotos

Upload Photos

1,935,259 photos uploaded!

WunderBlog® & News

Nearby

Air Quality

  Air Quality AQ Index Pollutant
Not available.

Snow Depth

Station Depth Elevation

Earthquake Activity

City Distance Mag. Time & Date
Minimum magnitude displayed is 2.5.

Coastal Water Temperatures

Place Temperature

Stations

Nearby Weather Stations

Station Location Temp. Windchill Dew Point Humidity Wind Precip. Elev Updated Type
                   

Watches & Warnings

There are currently no watches in effect.